Wind_Speed
6 6 6 5 4 3 2 2 3 2 3 3 4 5 6 8 8 8 8 9 9 8 8 7 8 8 8 7 7 6 5 5 4 4 4 4 3 3 3 3 2 2 2 3 3 3 3 2 2
8 7 7 6 5 4 4 3 4 4 3 3 4 5 6 7 7 7 8 9 9 8 8 8 8 7 7 6 6 6 5 5 4 4 4 4 3 3 3 2 2 2 3 3 4 4 4 4 4
9 8 8 7 6 6 5 4 5 5 5 4 4 5 6 7 7 7 8 8 8 9 9 10 9 7 6 6 6 6 5 5 5 4 4 4 4 4 4 3 3 3 3 4 4 5 5 5 4
10 9 9 8 8 6 6 5 5 5 5 5 5 4 5 6 7 7 8 8 8 9 9 10 9 8 6 6 6 6 6 6 5 5 5 5 5 5 5 5 4 4 4 4 4 5 6 5 5
11 11 10 10 9 7 7 7 6 6 6 6 5 5 4 6 6 7 8 9 9 9 10 10 9 9 8 7 7 7 6 6 6 6 5 5 6 6 6 6 6 6 5 5 5 6 6 6 6
12 12 11 11 10 9 9 8 8 7 7 6 6 5 4 5 6 7 8 8 9 9 10 10 9 9 9 8 8 7 7 6 7 7 6 6 6 7 7 7 7 6 6 6 6 6 7 6 6
13 12 12 12 11 11 11 10 10 8 7 7 7 7 6 6 7 8 8 8 9 10 10 10 9 9 8 8 8 8 8 7 7 7 7 7 7 7 7 7 7 7 7 7 7 7 7 7 7
14 13 13 13 12 12 12 11 11 10 8 8 8 8 7 7 8 8 9 9 9 10 9 10 9 9 9 9 10 9 8 8 8 8 8 8 8 7 7 6 6 6 7 6 7 7 7 7 7
14 14 13 13 13 12 13 12 12 11 10 9 9 9 8 8 8 8 9 9 8 8 9 10 10 10 10 10 10 10 9 9 9 8 8 8 8 7 7 6 6 7 7 7 7 8 8 8 7
15 14 14 14 14 14 14 13 12 11 10 9 9 9 8 8 8 8 8 8 8 8 9 10 11 11 11 10 10 10 9 9 9 10 9 8 8 8 8 7 7 7 7 8 8 8 9 9 8
16 15 15 15 15 15 15 14 13 12 11 10 10 9 9 8 9 9 8 7 7 8 10 10 11 11 11 11 11 10 9 9 9 9 9 8 9 9 9 8 8 7 7 8 8 9 9 9 9
16 15 15 16 16 16 16 15 14 13 12 12 11 11 11 10 9 9 9 8 8 9 10 10 11 11 11 11 11 10 10 10 10 9 9 9 9 9 9 8 8 8 8 8 9 9 10 10 10
18 17 16 16 16 16 16 15 15 13 12 13 12 12 12 12 11 10 9 8 8 9 9 10 11 11 11 11 11 10 10 9 9 9 9 10 10 10 9 8 8 8 9 9 10 10 11 11 11
18 17 17 17 17 17 16 15 15 14 14 13 13 13 12 12 11 10 10 9 9 9 9 10 11 12 11 11 11 10 9 9 9 10 10 10 10 10 9 9 9 9 9 10 10 11 11 11 11
19 18 18 18 18 18 17 16 16 15 15 14 14 14 13 13 11 10 10 10 9 10 10 11 11 11 11 11 11 10 10 10 10 10 11 11 10 10 10 10 10 10 10 10 11 11 12 12 12
20 19 18 18 18 19 19 17 16 15 15 15 14 14 14 13 12 11 10 9 10 10 11 11 11 11 11 11 11 10 10 11 11 11 11 11 10 10 11 11 11 11 11 11 12 12 12 12 12
20 20 19 19 19 20 20 19 18 17 16 16 15 14 14 14 13 12 11 10 11 11 11 11 11 12 11 11 11 11 11 12 12 12 12 12 12 12 12 12 12 12 13 13 13 13 13 13 13
21 20 19 20 21 21 21 21 19 18 17 16 16 16 16 15 14 12 12 12 12 11 11 11 12 12 12 12 12 12 12 13 13 12 12 13 13 12 12 13 13 13 13 13 13 14 14 14 14
21 20 20 20 21 22 22 21 20 20 19 18 17 17 16 14 13 13 13 13 13 12 12 13 13 12 13 13 12 12 13 13 13 13 14 14 14 13 13 13 14 13 13 13 13 14 14 15 15
22 21 20 20 21 22 22 21 20 20 19 19 19 18 17 16 14 14 13 13 13 12 12 13 13 12 12 13 13 13 14 13 13 13 14 14 14 14 14 14 14 14 13 13 13 14 14 15 15
21 21 22 22 22 22 22 20 20 20 20 19 19 19 18 17 15 14 14 13 14 13 13 12 12 12 13 14 15 15 15 15 14 14 14 14 14 14 14 14 14 13 13 14 14 15 15 15 15
21 21 22 22 23 23 22 21 19 19 19 19 18 18 18 17 16 16 15 15 14 14 13 13 12 13 14 15 15 16 16 16 15 15 15 15 15 14 14 14 15 14 15 15 16 17 16 16 16
20 21 22 22 23 23 22 22 18 18 18 18 18 18 19 18 17 17 17 17 16 15 14 14 13 14 15 15 15 15 16 16 15 15 15 15 15 15 15 15 16 16 16 16 16 16 17 17 17
20 21 21 22 23 23 21 22 19 18 17 18 18 19 19 18 18 18 18 18 17 16 16 15 15 15 16 16 15 16 16 15 15 15 15 15 15 15 16 16 17 17 17 18 17 17 17 18 18
20 21 22 22 22 22 21 21 19 18 18 19 19 19 19 18 18 18 19 19 18 18 17 17 17 17 16 15 16 16 16 16 15 16 16 16 16 16 17 17 18 18 18 18 18 18 17 18 18
21 22 22 23 22 21 21 21 19 18 18 20 20 19 19 19 19 19 19 19 19 19 19 18 18 17 16 16 16 16 16 16 15 16 16 16 16 17 18 18 18 18 19 18 18 18 18 18 18
21 22 22 23 22 22 22 20 19 18 18 19 20 21 20 19 20 21 21 20 20 20 19 19 18 18 17 17 16 16 16 16 16 16 15 14 15 16 17 18 18 18 18 18 18 18 19 18 18
21 22 23 23 23 23 22 21 18 16 16 18 19 20 20 20 21 21 21 21 21 21 20 20 19 18 18 18 17 16 16 17 16 15 14 14 14 15 16 16 16 16 16 16 16 18 18 18 19
22 22 23 23 24 23 23 20 18 17 16 17 18 19 19 20 20 21 21 21 21 21 21 21 20 19 19 18 17 17 17 17 16 16 15 14 15 15 15 14 14 15 15 15 16 16 17 18 18
21 21 22 23 23 23 23 21 19 18 17 17 18 19 19 20 21 21 21 20 21 21 20 20 19 19 19 19 18 18 18 17 17 16 16 16 15 15 15 15 15 14 14 15 15 15 16 17 17
Wind_Direction
230 235 232 227 224 235 252 283 304 316 348 12 13 16 10 3 3 2 2 359 359 360 2 3 4 6 10 16 19 20 22 24 20 16 9 2 357 354 348 342 330 320 307 276 258 255 255 265 285
234 235 233 233 235 244 252 267 289 300 315 344 357 1 358 353 356 1 1 2 2 360 359 0 1 2 1 2 6 11 11 11 10 8 3 356 348 348 349 339 334 313 298 276 262 254 259 267 275
235 238 238 239 243 252 257 263 278 297 305 324 339 346 345 344 346 353 357 359 359 355 354 358 356 355 351 348 352 356 354 355 354 350 344 340 333 328 327 314 307 296 287 278 270 267 263 264 269
239 242 243 244 248 253 258 268 277 286 303 315 321 329 330 332 336 340 347 350 349 348 351 355 358 356 351 349 348 346 341 337 337 333 328 323 319 313 311 308 298 289 283 280 275 274 263 260 260
242 246 248 249 251 257 263 275 281 278 288 297 302 304 320 324 326 327 336 342 342 344 348 352 357 356 351 348 346 340 336 332 326 323 319 313 308 306 303 296 291 282 277 271 273 270 260 257 256
244 250 250 248 250 258 262 267 275 278 283 288 289 292 312 315 319 324 326 329 333 336 341 348 351 352 347 341 338 333 330 328 327 323 318 311 304 302 300 292 288 279 274 269 263 259 259 258 260
247 252 251 249 251 259 265 267 269 282 286 285 291 291 301 309 317 318 320 323 328 329 334 341 345 344 339 336 334 326 321 318 318 318 317 312 307 302 299 291 285 279 276 266 258 259 255 259 257
250 255 255 254 252 254 261 264 268 270 280 289 293 293 292 304 312 319 321 322 324 326 329 333 335 333 331 329 328 324 320 317 313 310 307 305 303 299 300 298 284 279 271 259 254 253 255 254 257
252 255 257 259 257 256 259 262 266 271 276 285 288 286 292 299 307 314 320 321 323 325 328 329 329 327 325 323 323 320 318 316 313 309 305 305 303 297 293 296 284 274 262 258 256 249 253 251 251
254 257 257 258 259 255 257 262 266 270 272 275 281 283 289 294 300 307 316 318 321 326 328 327 326 323 321 319 318 315 312 311 311 310 308 306 303 296 290 289 285 274 266 259 255 252 253 254 249
255 258 259 257 256 254 257 260 263 266 266 271 279 279 283 292 299 304 311 318 318 324 326 325 322 321 318 314 315 313 308 306 307 308 305 304 302 296 292 285 278 270 264 260 256 256 256 255 255
253 256 259 258 255 255 258 262 265 265 267 269 271 271 278 283 292 297 302 310 316 323 325 323 320 317 316 311 308 310 306 303 302 302 297 296 295 293 290 284 274 268 263 260 258 257 256 255 254
251 253 256 257 257 257 256 259 262 263 267 269 270 271 276 282 285 285 290 301 309 317 321 323 320 317 312 310 305 305 303 299 297 298 293 291 290 289 285 281 273 273 266 259 256 255 254 252 252
248 249 251 253 254 253 254 255 259 261 264 267 269 270 272 279 282 280 285 292 303 310 315 320 319 318 312 308 304 299 295 293 296 289 292 292 289 286 283 277 273 270 266 264 261 254 253 253 252
245 247 249 249 249 251 251 250 255 257 261 267 270 266 266 272 272 274 280 287 296 305 309 313 315 315 310 307 303 297 292 290 290 290 289 288 286 284 278 273 271 270 266 263 262 259 256 255 253
246 248 247 246 247 249 250 248 250 252 257 263 267 264 263 263 263 265 267 277 288 298 305 308 309 310 307 306 303 295 293 287 284 285 288 289 287 285 280 275 274 275 269 264 262 260 258 257 255
247 248 247 245 249 250 252 249 245 246 252 260 262 263 262 259 256 259 263 273 282 290 297 301 303 304 305 303 301 296 292 286 283 281 283 286 286 283 282 280 277 276 271 265 262 260 257 256 256
247 249 249 250 252 251 252 251 247 246 249 254 257 260 261 259 254 259 266 274 279 282 286 291 295 299 300 298 299 296 292 287 284 281 279 278 280 281 282 280 277 274 271 267 266 262 256 256 258
247 248 250 253 252 253 252 253 251 248 248 251 255 259 259 258 259 263 271 276 283 283 281 287 293 295 298 299 294 290 289 288 285 283 281 277 277 278 280 281 282 277 271 264 261 260 259 260 260
249 249 251 253 254 256 254 254 253 249 248 250 253 256 256 255 258 262 267 278 283 284 283 287 290 293 296 299 295 289 288 288 286 283 278 275 277 277 278 279 280 277 274 268 264 263 262 266 264
251 252 253 255 254 257 258 255 252 249 248 248 251 255 255 253 256 262 268 275 277 279 282 286 287 291 296 299 298 291 287 286 285 282 279 279 279 278 278 277 275 273 272 270 269 267 267 268 268
250 253 255 257 256 255 258 257 251 249 248 251 255 256 255 251 253 259 265 269 271 274 278 282 284 286 291 295 295 292 288 285 283 281 281 280 278 278 276 275 274 272 272 272 270 268 267 266 266
252 253 255 257 258 259 259 259 254 251 250 254 258 259 254 254 255 257 261 264 271 274 277 280 283 283 288 290 292 291 290 286 284 282 281 281 279 278 278 277 277 275 274 274 273 269 267 267 266
252 253 255 256 260 259 259 259 257 255 255 256 258 258 255 254 255 255 258 263 269 273 277 279 282 283 286 289 289 289 290 288 286 281 280 280 281 280 278 279 278 277 276 276 276 274 270 269 268
249 252 255 257 259 260 258 257 260 260 259 261 260 257 255 255 255 254 258 264 267 270 274 278 281 283 285 286 288 293 292 290 285 282 279 279 279 277 278 279 278 277 275 275 275 273 270 270 268
250 252 257 261 264 264 259 257 261 262 263 263 258 256 257 257 257 256 257 263 266 269 273 276 280 281 284 284 286 290 292 294 292 286 281 279 278 276 279 279 278 277 274 273 273 271 271 271 271
250 251 256 260 264 265 261 260 261 264 265 264 259 258 259 258 258 258 261 265 266 269 272 273 277 279 281 281 283 285 289 294 298 292 283 280 279 278 282 279 278 276 273 273 272 271 271 271 271
253 254 255 257 262 266 264 261 264 265 262 261 259 260 263 264 262 261 262 269 266 267 268 272 274 275 276 278 281 284 288 293 298 299 289 282 282 281 282 280 279 276 275 275 272 274 274 272 272
254 254 255 256 259 264 265 264 268 267 264 261 260 263 265 266 263 261 264 266 266 266 268 271 271 274 276 278 280 284 287 289 291 295 291 282 283 284 283 282 281 279 276 275 275 275 276 276 275
253 253 253 253 257 261 266 266 266 266 266 264 264 267 266 266 264 263 263 264 265 267 267 268 270 275 276 277 279 280 284 286 288 289 291 288 282 281 280 278 278 279 278 278 277 277 279 281 279
Height
5876 5877 5878 5879 5880 5880 5879 5879 5879 5879 5879 5880 5879 5879 5879 5880 5880 5881 5879 5877 5876 5875 5874 5874 5872 5872 5871 5870 5870 5870 5870 5870 5870 5870 5870 5870 5869 5870 5870 5870 5870 5871 5871 5871 5872 5873 5873 5873 5874
5875 5876 5878 5879 5879 5879 5879 5879 5878 5879 5880 5879 5879 5879 5879 5879 5879 5878 5877 5876 5875 5875 5874 5873 5872 5871 5870 5870 5870 5870 5870 5870 5870 5869 5869 5869 5869 5869 5870 5870 5870 5870 5871 5871 5872 5872 5873 5873 5874
5874 5876 5877 5878 5878 5879 5879 5879 5878 5879 5879 5879 5879 5879 5879 5879 5878 5878 5877 5876 5876 5875 5874 5873 5872 5870 5870 5869 5869 5869 5869 5869 5869 5869 5869 5869 5869 5869 5869 5869 5869 5870 5870 5870 5871 5871 5872 5872 5873
5874 5875 5877 5877 5877 5878 5878 5878 5878 5878 5879 5879 5879 5879 5878 5878 5878 5878 5877 5876 5875 5875 5873 5872 5871 5870 5869 5869 5869 5869 5869 5869 5868 5868 5868 5868 5868 5868 5868 5868 5869 5869 5869 5870 5870 5870 5871 5871 5872
5873 5874 5875 5876 5876 5877 5877 5877 5877 5878 5878 5878 5878 5878 5878 5878 5877 5877 5876 5876 5875 5874 5873 5872 5871 5870 5869 5868 5869 5868 5868 5868 5868 5867 5867 5867 5867 5867 5867 5867 5867 5868 5868 5869 5869 5869 5870 5870 5871
5872 5873 5874 5874 5875 5876 5876 5876 5876 5876 5876 5877 5877 5877 5876 5877 5876 5876 5876 5875 5875 5874 5872 5871 5870 5870 5869 5868 5868 5868 5867 5867 5867 5866 5866 5866 5866 5866 5866 5866 5866 5866 5867 5867 5867 5868 5868 5869 5870
5870 5871 5872 5873 5874 5874 5875 5874 5874 5874 5874 5875 5876 5876 5876 5876 5876 5875 5875 5874 5873 5872 5872 5870 5869 5869 5868 5867 5867 5867 5866 5866 5866 5865 5865 5865 5865 5864 5864 5864 5864 5864 5865 5865 5866 5866 5867 5868 5869
5868 5870 5870 5871 5872 5873 5873 5872 5872 5873 5873 5874 5874 5875 5875 5875 5874 5874 5874 5873 5872 5871 5870 5869 5868 5868 5867 5866 5866 5865 5865 5865 5864 5864 5864 5863 5863 5863 5863 5862 5862 5863 5863 5863 5864 5865 5865 5866 5867
5866 5868 5868 5869 5870 5870 5870 5871 5871 5871 5872 5872 5873 5873 5874 5873 5873 5873 5872 5872 5871 5870 5869 5868 5867 5867 5866 5865 5865 5864 5863 5863 5863 5863 5862 5862 5861 5861 5861 5861 5861 5861 5862 5862 5862 5863 5863 5864 5865
5864 5865 5866 5867 5867 5867 5867 5868 5868 5869 5870 5871 5871 5871 5871 5872 5872 5872 5871 5871 5870 5869 5868 5867 5866 5865 5864 5864 5863 5862 5862 5861 5861 5861 5860 5860 5860 5860 5860 5859 5859 5860 5860 5860 5861 5861 5862 5863 5863
5861 5863 5863 5863 5864 5864 5865 5866 5866 5867 5868 5869 5869 5869 5869 5870 5870 5870 5870 5869 5868 5868 5867 5866 5865 5864 5863 5862 5861 5860 5860 5860 5859 5859 5859 5858 5858 5858 5858 5857 5857 5858 5858 5858 5859 5859 5860 5861 5862
5859 5860 5860 5860 5861 5862 5862 5863 5864 5865 5866 5866 5867 5866 5867 5868 5868 5868 5868 5868 5867 5866 5865 5864 5863 5862 5861 5859 5859 5858 5858 5858 5857 5857 5857 5856 5856 5856 5856 5856 5855 5856 5856 5856 5857 5857 5858 5859 5860
5856 5857 5857 5858 5858 5859 5860 5860 5861 5862 5863 5864 5864 5864 5865 5865 5866 5866 5866 5866 5865 5864 5863 5862 5861 5860 5859 5857 5856 5856 5856 5855 5855 5855 5855 5855 5854 5854 5854 5854 5853 5854 5854 5854 5854 5855 5856 5857 5857
5852 5853 5854 5855 5855 5856 5857 5857 5858 5860 5860 5861 5861 5862 5862 5863 5864 5864 5864 5864 5863 5863 5862 5861 5859 5858 5857 5856 5855 5854 5854 5853 5853 5853 5853 5852 5852 5852 5852 5852 5851 5851 5851 5851 5852 5853 5853 5854 5855
5848 5850 5851 5851 5852 5853 5854 5855 5855 5856 5857 5857 5858 5859 5860 5860 5861 5861 5862 5862 5861 5860 5859 5858 5858 5856 5855 5854 5853 5852 5851 5851 5851 5851 5850 5850 5850 5850 5849 5849 5849 5849 5849 5849 5849 5850 5851 5851 5852
5845 5846 5847 5849 5849 5849 5851 5852 5852 5852 5853 5854 5855 5856 5857 5858 5858 5859 5860 5859 5859 5858 5857 5856 5856 5854 5853 5852 5851 5850 5849 5849 5848 5848 5848 5848 5847 5847 5847 5846 5846 5847 5847 5847 5847 5847 5848 5848 5849
5841 5842 5844 5845 5846 5846 5847 5848 5849 5849 5850 5851 5852 5854 5854 5855 5855 5856 5857 5857 5856 5855 5855 5854 5854 5852 5851 5850 5849 5848 5847 5847 5846 5846 5846 5845 5845 5844 5844 5844 5844 5844 5843 5844 5844 5844 5845 5845 5846
5837 5839 5840 5841 5842 5842 5842 5844 5846 5846 5846 5848 5849 5850 5851 5852 5853 5853 5854 5854 5853 5853 5852 5852 5851 5850 5849 5848 5846 5845 5845 5844 5844 5843 5843 5842 5842 5842 5841 5841 5841 5840 5840 5840 5841 5841 5841 5841 5842
5833 5834 5836 5837 5837 5838 5838 5839 5841 5842 5843 5844 5846 5847 5848 5848 5849 5850 5851 5851 5850 5850 5849 5849 5848 5847 5846 5845 5844 5843 5842 5841 5841 5840 5840 5839 5839 5838 5838 5838 5837 5837 5836 5837 5837 5837 5837 5837 5837
5829 5830 5831 5832 5832 5833 5834 5835 5837 5838 5840 5841 5842 5843 5844 5845 5845 5847 5847 5847 5847 5847 5846 5846 5845 5844 5843 5842 5841 5840 5839 5838 5838 5837 5836 5836 5835 5835 5834 5834 5833 5833 5833 5833 5833 5833 5833 5833 5833
5824 5826 5827 5828 5828 5828 5830 5832 5833 5835 5836 5837 5838 5839 5840 5841 5842 5843 5843 5844 5843 5843 5843 5843 5842 5842 5841 5839 5838 5837 5836 5835 5834 5833 5833 5832 5831 5831 5830 5830 5830 5829 5829 5829 5829 5829 5829 5829 5829
5820 5821 5822 5822 5823 5824 5826 5827 5829 5830 5831 5833 5834 5834 5835 5836 5838 5839 5840 5840 5840 5840 5840 5840 5839 5838 5837 5836 5835 5834 5833 5832 5830 5830 5829 5828 5827 5827 5826 5826 5826 5826 5825 5825 5825 5825 5825 5825 5825
5815 5816 5817 5817 5818 5819 5821 5822 5825 5826 5827 5828 5829 5830 5831 5832 5833 5834 5835 5836 5836 5837 5837 5836 5836 5835 5834 5833 5832 5830 5829 5828 5826 5825 5825 5824 5823 5823 5822 5822 5821 5821 5821 5820 5820 5820 5820 5820 5820
5810 5811 5812 5812 5813 5815 5817 5818 5820 5821 5823 5824 5824 5825 5826 5827 5828 5829 5830 5831 5832 5833 5832 5832 5832 5831 5830 5829 5828 5827 5825 5824 5822 5822 5821 5820 5819 5818 5817 5817 5816 5816 5815 5815 5814 5814 5814 5814 5814
5806 5807 5807 5808 5808 5811 5813 5813 5816 5817 5818 5819 5820 5820 5821 5822 5823 5824 5826 5827 5828 5828 5828 5828 5828 5827 5826 5825 5824 5823 5821 5820 5819 5818 5817 5815 5814 5813 5813 5812 5811 5810 5810 5809 5809 5809 5809 5809 5809
5801 5803 5804 5804 5805 5806 5807 5809 5812 5813 5814 5814 5815 5816 5817 5818 5819 5820 5821 5822 5823 5823 5823 5823 5823 5823 5822 5821 5820 5819 5818 5816 5815 5813 5812 5810 5809 5808 5808 5806 5805 5804 5804 5803 5803 5803 5803 5803 5803
5796 5797 5799 5800 5800 5801 5802 5805 5807 5808 5809 5810 5811 5811 5812 5813 5814 5815 5816 5817 5818 5818 5819 5819 5818 5818 5817 5816 5815 5815 5814 5812 5810 5808 5807 5806 5805 5804 5803 5801 5800 5799 5798 5798 5798 5798 5798 5798 5798
5792 5793 5794 5795 5795 5796 5798 5800 5803 5804 5805 5806 5807 5807 5807 5808 5809 5810 5811 5811 5812 5813 5813 5813 5813 5813 5812 5812 5811 5810 5809 5807 5806 5804 5803 5802 5800 5799 5798 5797 5795 5795 5794 5793 5793 5793 5792 5792 5792
5787 5788 5789 5790 5791 5792 5793 5798 5799 5800 5800 5801 5802 5802 5803 5803 5804 5804 5806 5806 5807 5807 5807 5807 5807 5808 5807 5807 5806 5805 5804 5803 5801 5800 5798 5797 5796 5795 5794 5792 5791 5790 5790 5789 5789 5788 5788 5788 5787
5781 5782 5784 5785 5786 5787 5788 5794 5794 5795 5795 5796 5797 5797 5798 5798 5799 5799 5800 5801 5801 5801 5802 5802 5802 5802 5802 5801 5801 5800 5799 5798 5797 5796 5794 5793 5792 5790 5789 5788 5787 5786 5786 5785 5784 5784 5783 5782 5781